Regional Weather Roundup
Issued by NWS Green Bay, WI

Home | Current Version | Previous Version | Text Only | Print | Product List | Glossary On
Versions: 1 2 3 4 5 6 7 8 9 10 11 12 13 14 15 16 17 18 19 20 21 22 23 24 25 26 27 28 29 30 31 32 33 34 35 36 37 38 39 40 41 42 43 44 45 46 47 48 49 50
000
ASUS43 KGRB 261811
RWRGRB

NORTH-CENTRAL AND NORTHEAST WISCONSIN REGIONAL WEATHER ROUNDUP
NATIONAL WEATHER SERVICE GREEN BAY WI
100 PM CDT TUE JUL 26 2016

WIZ005-009-010>012-018-019-261900-
NORTH CENTRAL WISCONSIN

CITY           SKY/WX    TMP DP  RH WIND       PRES   REMARKS
IRONWOOD       MOSUNNY  N/A N/A N/A W13       29.93F
MANITOWISH WTR SUNNY     83  63  50 W16G23    30.01F
ARBOR VITAE    SUNNY     85  65  50 W13G20    30.02F
EAGLE RIVER    SUNNY     83  60  45 SW9G16    30.02F
LAND O LAKES   SUNNY     85  60  43 W8G18     30.02F
RHINELANDER    SUNNY     86  63  45 SW14      30.04F
PHILLIPS       SUNNY     83  66  54 SW15G21   30.02F
ANTIGO         SUNNY     83  65  53 SW3       30.05F
TOMAHAWK       SUNNY     84  62  46 W6        30.04F
MERRILL        SUNNY     86  65  50 W10G18    30.04F
$$

WIZ013-073-261900-
NORTHEAST WISCONSIN

CITY           SKY/WX    TMP DP  RH WIND       PRES   REMARKS
IRON MOUNTAIN  MOSUNNY   88  63  43 W9        29.98F
MARINETTE      MOSUNNY  N/A N/A N/A VRB7      29.99
OCONTO         MOSUNNY   85  66  53 W9        30.00F
$$

WIZ017-030-035>037-045-261900-
CENTRAL WISCONSIN

CITY           SKY/WX    TMP DP  RH WIND       PRES   REMARKS
MEDFORD        SUNNY     81  69  66 SW10G16   30.06S
WAUSAU         SUNNY     85  63  47 SW12      30.03F
MOSINEE        MOSUNNY   82  66  57 SE12      30.06F
MARSHFIELD     MOSUNNY   85  67  54 SW10      30.06F
WISC RAPIDS    MOSUNNY   86  63  45 SW8       30.06F
STEVENS POINT  MOSUNNY   83  64  52 W7        30.06F
WAUPACA        MOSUNNY   88  64  44 W7        30.04F
SHAWANO        MOSUNNY   87  66  50 SW7       30.03F
CLINTONVILLE   MOSUNNY   86  63  45 SW8       30.03F
WAUTOMA        PTSUNNY   85  66  53 W7        30.05F
$$

WIZ038-039-048-051-261900-
FOX VALLEY

CITY           SKY/WX    TMP DP  RH WIND       PRES   REMARKS
NWS GREEN BAY  MOSUNNY   84  69  60 W7        30.03F
APPLETON       PTSUNNY   81  63  54 W7        30.05F
OSHKOSH        SUNNY     84  64  50 W6        30.05F
FOND DU LAC    MOSUNNY   85  62  46 SW5       30.06F
$$

WIZ022-050-052-261900-
EAST CENTRAL WISCONSIN

CITY           SKY/WX    TMP DP  RH WIND       PRES   REMARKS
EPHRAIM        FAIR      82  66  58 W8        30.00F
WASHINGTON ISL NOT AVBL
STURGEON BAY   SUNNY     84  65  52 VRB7      30.02F
MANITOWOC      CLOUDY    84  63  49 W6        30.04F
SHEBOYGAN      MOSUNNY   85  61  44 VRB3      30.05F
$$

LMZ563-521-522-541>543-261900-
LAKESHORE

STATION/POSITION TIME  TEMP    WIND        PRES    VSBY  WAVE
                       AIR SEA DIR/SP/G                  HT/PER
                 (UTC) (F)     (DEG/KT/KT) (MB)    (MI)  (FT/S)
SHEBOYGAN LKSHOR 1800   73     150/ 10/ 10 1017.5F
KEWAUNEE LKSHORE 1700   66     170/  7/  7 1016.7F
ALGOMA MARINA    1713          220/ 11/ 13   N/A
NORTHPORT PIER   1700   77     110/  4/  5 1015.6F
N MID LAKE BUOY  1750   71 71  200/ 10/ 12 1015.0F         0
S GREEN BAY BUOY 1700   77 75  190/  8/ 10   N/A
SISTER BAY LKSHO 1706   84     300/  8/  8   N/A
CHAMBERS ISLAND  1700   78     160/  7/ 11 1016.3
MENOMINEE LKSHOR 1700   78     180/  6/  9 1015.4F
$$




USA.gov is the U.S. government's official web portal to all federal, state and local government web resources and services.